Regional Weather Roundup
Issued by NWS

Home | Current Version | Previous Version | Text Only | Print | Product List | Glossary On
Versions: 1 2 3 4 5 6 7 8 9 10 11 12 13 14 15 16 17 18 19 20 21 22 23 24 25 26 27 28 29 30 31 32 33 34 35 36 37 38 39 40 41 42 43 44 45 46 47 48 49 50
431
ASUS45 KTFX 172110
RWRMT
MONTANA REGIONAL WEATHER ROUNDUP
NATIONAL WEATHER SERVICE GREAT FALLS MT
300 PM MDT TUE OCT 17 2017

NOTE: "FAIR" INDICATES FEW OR NO CLOUDS BELOW 12000 FEET WITH NO
SIGNIFICANT WEATHER AND/OR OBSTRUCTIONS TO VISIBILITY.

MTZ001>007-043-172200-
WEST OF THE DIVIDE

CITY           SKY/WX    TMP DP  RH WIND       PRES   REMARKS
KALISPELL      MOSUNNY   71  24  17 SW26G46   29.64F
MISSOULA       MOSUNNY   71  26  18 W22G28    29.85F
BUTTE          SUNNY     68  15  13 W24G33    29.97F
MULLAN PASS    PTSUNNY   46  23  40 SW13G28   29.89F
ANACONDA         N/A     70  19  14 SW16G26   29.92F
HAMILTON         N/A     70  21  16 SW14G28   29.91F
LIBBY            N/A     66  21  18 S14G37    29.66F
$$

MTZ008-052>055-172200-
SOUTHWEST MONTANA

CITY           SKY/WX    TMP DP  RH WIND       PRES   REMARKS
BOZEMAN        SUNNY     70  16  12 SW20      29.92F
DILLON         CLOUDY    67  21  17 SW18G30   29.99F
W YELLOWSTONE  CLOUDY    55  14  19 S8G20     30.16F
ENNIS          CLOUDY    68  18  14 S29G38    30.04F
TWIN BRIDGES     N/A     71  21  15 S23       29.96F
$$

MTZ009-010-012-014-046-048-049-054-172200-
EAST SLOPES AND CENTRAL MONTANA

CITY           SKY/WX    TMP DP  RH WIND       PRES   REMARKS
CUT BANK       SUNNY     67  19  16 SW49G64   29.58F
GREAT FALLS    SUNNY     73  18  12 W39G53    29.69F
MALMSTROM AFB  SUNNY     73  20  14 SW35G41   29.70F
HELENA         SUNNY     72  20  14 SW15G28   29.82F
BOWMANS CRNR     N/A     67  20  16 SW41G56   29.74F
POWER            N/A     70  20  15 SW33G51   29.70F
$$

MTZ011-013-016-021-045-047-050-051-172200-
NORTH CENTRAL MONTANA

CITY           SKY/WX    TMP DP  RH WIND       PRES   REMARKS
HAVRE          MOSUNNY   74  22  14 SW39G48   29.58F
LEWISTOWN      CLOUDY    71  19  14 SW28G39   29.77F
N BAR RANCH      N/A     70  14  11 SW28G36   29.81F
CHINOOK          N/A     75  21  13 SW25G43   29.57F
$$

MTZ017>020-022>027-061-062-172200-
NORTHEAST MONTANA

CITY           SKY/WX    TMP DP  RH WIND       PRES   REMARKS
GLASGOW        SUNNY     78  21  12 SW21G35   29.62F
JORDAN           N/A     75  21  13 SW20G35   29.70F
SIDNEY         SUNNY     78  23  13 SW18G25   29.67F
WOLF POINT     SUNNY     79  22  12 SW25G33   29.64F
MALTA          SUNNY     77  19  11 SW28G35   29.60F
PLENTYWOOD       N/A     73  27  17 SW18G25   29.63F
$$

MTZ028>42-056>058-172200-
SOUTHCENTRAL AND SOUTHEAST MONTANA

CITY           SKY/WX    TMP DP  RH WIND       PRES   REMARKS
BAKER          SUNNY     74  26  16 SW18      29.82F
BILLINGS       PTSUNNY   72  21  14 SW16G25   29.84F
LIVINGSTON     CLOUDY    73  17  12 SW25G40   29.90S
MILES CITY     SUNNY     79  23  12 SW16G28   29.77F
$$

REGIONAL REPORTS...DAKOTAS

CITY           SKY/WX    TMP DP  RH WIND       PRES   REMARKS
WILLISTON      SUNNY     77  27  15 SW18G28   29.65F
MINOT          SUNNY     76  30  18 SW21G29   29.67F
DICKINSON      CLOUDY    76  24  14 W20G26    29.76F
BEACH            N/A     73  19  13 W20G29    29.80F
CROSBY           N/A     73  27  17 SW24G31   29.61F
TIOGA            N/A     73  25  16 SW22G32   29.67F
WATFORD CITY     N/A     75  28  17 SW16      29.69F
BISMARCK       SUNNY     80  28  15 SW15      29.77F
GRAND FORKS    MOSUNNY   80  32  17 SW17G28   29.70F
FARGO          SUNNY     76  39  26 S16G24    29.78F
BUFFALO SD       N/A     78  18  10 SW14      29.79F
RAPID CITY     SUNNY     76  27  16 SE14      29.89F
$$

REGIONAL REPORTS...WYOMING/IDAHO/WASHINGTON

CITY           SKY/WX    TMP DP  RH WIND       PRES   REMARKS
GILLETTE       SUNNY     73  11   9 W8        29.94F
SHERIDAN       SUNNY     79  16   9 VRB5      29.89F
BUFFALO WY     SUNNY     74   8   8 SE7       29.96F
CODY           CLOUDY    72  15  11 W17G23    29.99F
IDAHO FALLS    CLOUDY    62  29  28 SW10      30.13F
SALMON         CLOUDY    53  27  36 NW3       30.04F
BOISE          PTSUNNY   62  30  29 NW5       30.11F
SPOKANE        CLOUDY    62  32  32 SW37G47   29.81R
$$

REGIONAL REPORTS...ALBERTA

CITY           SKY/WX    TMP DP  RH WIND       PRES   REMARKS
EDMONTON       LGT RAIN  59  43  55 NW21G30   29.06F
CALGARY        MOSUNNY   68  28  22 S21G29    29.18F
LETHBRIDGE     MOSUNNY   72  19  14 SW44G58   29.38F
MEDICINE HAT   MOSUNNY   75  19  12 SW46G55   29.37F
$$

REGIONAL REPORTS...SASKATCHEWAN

CITY           SKY/WX    TMP DP  RH WIND       PRES   REMARKS
SWIFT CURRENT  SUNNY     73  19  13 SW39G47   29.42F
REGINA         MOSUNNY   75  28  17 SW25G36   29.45F
SASKATOON      MOSUNNY   73  36  25 S21G29    29.29F
$$




USA.gov is the U.S. government's official web portal to all federal, state and local government web resources and services.